Regional Weather Roundup
Issued by NWS

Home | Current Version | Previous Version | Text Only | Print | Product List | Glossary Off
Versions: 1 2 3 4 5 6 7 8 9 10 11 12 13 14 15 16 17 18 19 20 21 22 23 24 25 26 27 28 29 30 31 32 33 34 35 36 37 38 39 40 41 42 43 44 45 46 47 48 49 50

000
ASUS43 KDMX 262104
RWRIA

WEATHER ROUNDUP FOR IOWA
NATIONAL WEATHER SERVICE DES MOINES IA
  ISSUED BY NWS QUAD CITIES IA IL
400 PM CDT THU MAR 26 2015

NOTE: "FAIR" INDICATES FEW OR NO CLOUDS BELOW 12,000 FEET WITH NO
SIGNIFICANT WEATHER AND/OR OBSTRUCTIONS TO VISIBILITY.

* - THESE STATIONS ARE NOT NWS STATIONS...THUS NOT UNDER NWS
QUALITY CONTROL.  THEY ALSO DO NOT REPORT WEATHER SUCH
AS PRECIPITATION OR FOG.

IAZ001>003-012>014-020>022-031>034-043>046-262200-
   NORTHWEST IOWA

CITY           SKY/WX    TMP DP  RH WIND       PRES   REMARKS
CARROLL *      CLOUDY    43  23  45 NW14G20   30.10S WCI  36
CHEROKEE *     CLOUDY    39  25  57 N9        30.12S WCI  33
DENNISON *     CLOUDY    43  25  49 N10G20    30.09F WCI  37
LE MARS *      CLOUDY    41  27  56 N15       30.14S WCI  33
ORANGE CITY *  CLOUDY    39  23  52 N12       30.12S WCI  32
SHELDON *      CLOUDY    37  23  56 N13G21    30.12S WCI  29
SIOUX CITY     CLOUDY    41  23  48 N12       30.14F WCI  34
SPENCER        CLOUDY    38  22  52 N15       30.12F WCI  29
STORM LAKE *   CLOUDY    39  25  56 N14       30.11S WCI  31
$$

IAZ055>058-069>071-079>083-090>094-262200-
   SOUTHWEST IOWA

CITY           SKY/WX    TMP DP  RH WIND       PRES   REMARKS
ATLANTIC *     MOSUNNY   45  23  42 N14       30.09F WCI  38
AUDUBON *      CLOUDY    45  21  39 N15       30.11S WCI  38
CLARINDA *     SUNNY     48  27  43 NW8G15    30.11F
COUNCIL BLFS * PTSUNNY   46  25  42 N12       30.09F
CRESTON *      SUNNY     46  25  42 N14G22    30.08F
HARLAN *       CLOUDY    45  25  45 N13G20    30.14S WCI  38
LAMONI         MOSUNNY   50  25  37 NW13G18   30.07F
RED OAK *      MOSUNNY   46  25  42 N10G16    30.10F
SHENANDOAH *   MOSUNNY   48  25  40 W7G13     30.10F
$$

IAZ047>049-059>061-072>074-084-262200-
   CENTRAL IOWA

CITY           SKY/WX    TMP DP  RH WIND       PRES   REMARKS
AMES           MOSUNNY   45  24  43 N18       30.09F WCI  37
ANKENY *       MOSUNNY   43  23  45 NW15G24   30.09F WCI  35
BOONE *        PTSUNNY   43  23  45 NW17G28   30.07F WCI  35
CHARITON *     MOSUNNY   46  25  42 N16G23    30.06F
DES MOINES     CLOUDY    45  22  40 N16G22    30.09F WCI  38
GRINNELL *     PTCLDY    44  24  45 NW22G28   30.07F WCI  35
KNOXVILLE *    MOSUNNY   45  23  42 N14G24    30.06F WCI  38
MARSHALLTOWN   MOSUNNY   41  23  48 NW21G30   30.07F WCI  32
NEWTON *       MOSUNNY   43  25  49 NW18G26   30.07F WCI  34
PERRY *        MOCLDY    42  26  52 N15G22    30.10S WCI  35
$$

IAZ004>006-015-016-023>025-035-036-262200-
   NORTH CENTRAL IOWA

CITY           SKY/WX    TMP DP  RH WIND       PRES   REMARKS
ALGONA *       CLOUDY    37  23  56 N14G22    30.10F WCI  29
CLARION *      MIX PCPN  37  25  60 N16G23    30.10S WCI  28
ESTHERVILLE    PTSUNNY   38  22  52 N15G24    30.10F WCI  29
FORT DODGE *   CLOUDY    39  23  52 NW8G20    30.11F WCI  34
MASON CITY     MOSUNNY   37  22  54 NW21      30.09F WCI  26
FOREST CITY *  CLOUDY    34  21  60 NW16G24   30.09S WCI  23
WEBSTER CITY * CLOUDY    39  27  60 NW17G23   30.08F WCI  30
IOWA FALLS *   MOCLDY    40  26  56 NW21      30.09F WCI  30
$$

IAZ007>011-017>019-026>030-037>042-050>054-066-262200-
   NORTHEAST IOWA

CITY           SKY/WX    TMP DP  RH WIND       PRES   REMARKS
CEDAR RAPIDS   MOSUNNY   44  24  45 N20G28    30.04S WCI  36
CHARLES CITY * PTSUNNY   36  25  64 N15G22    30.09S WCI  26
CLINTON *      MOSUNNY   45  25  45 N17G28    30.04S WCI  37
DECORAH *      CLOUDY    32  21  64 NW9G16    30.06R WCI  24
DUBUQUE        PTSUNNY   39  22  50 NW16G26   30.03R WCI  30
MONTICELLO *   PTSUNNY   39  23  52 N18G25    30.05R WCI  30
OELWEIN *      MOSUNNY   36  23  60 NW20G26   30.08S WCI  25
WATERLOO       MOSUNNY   41  22  46 N22       30.06F WCI  31
$$

IAZ064-065-067-068-078-262200-
   EAST CENTRAL IOWA

CITY           SKY/WX    TMP DP  RH WIND       PRES   REMARKS
DAVENPORT      SUNNY     44  23  43 NW21G30   30.02S WCI  36
IOWA CITY      SUNNY     46  20  35 NW23G31   30.05F
MT. PLEASANT * MOSUNNY   47  24  40 NW17G28   30.04F
MUSCATINE *    SUNNY     48  21  34 NW22G29   30.04S
QUAD CITIES    SUNNY     47  22  37 W17G31    30.01F
$$

IAZ062-063-075>077-085>089-095>099-262200-
   SOUTHEAST IOWA

CITY           SKY/WX    TMP DP  RH WIND       PRES   REMARKS
BURLINGTON     MOSUNNY   48  25  40 NW13G25   30.03S
FAIRFIELD *    SUNNY     46  25  42 NW24G30   30.05S
FORT MADISON * MOSUNNY   48  25  40 NW14G25   30.04F
KEOKUK *       MOSUNNY   50  25  37 NW16G25   30.04F
CENTERVILLE *  FAIR      48  25  40 N10       30.07F
OTTUMWA        SUNNY     47  23  38 N21G30    30.06F
WASHINGTON *   SUNNY     46  23  39 NW22G28   30.04F
$$

ABBREVIATIONS USED IN REMARKS
   TC - TEMPERATURES IN CELSIUS
  WCI - WIND CHILL INDEX
   HX - HEAT INDEX
  VSB - VISIBILITY
$$


USA.gov is the U.S. government's official web portal to all federal, state and local government web resources and services.